Location: Potomac
(46.8816°N, 113.5795°W)
Time: 06:26:04
(UTC+00:00)

Oscar 19 - Pass Details

Date: 27 June 2022
Orbit: 773 x 790 km, 98.8° (Epoch: 12 August)

Event Time Altitude Azimuth Distance (km) Brightness Sun altitude
Rises 10:55:16 0° 17° (NNE) 3,265 15.1 -6.8°
Reaches altitude 10° 10:57:38 10° 21° (NNE) 2,332 14.4 -6.6°
Maximum altitude 11:02:43 60° 102° (ESE) 886 11.2 -5.9°
Drops below altitude 10° 11:07:45 10° 182° (S) 2,312 12.7 -5.3°
Sets 11:10:05 0° 186° (S) 3,235 13.4 -5.0°
